Location: Góry Miechowskie
(50.3599°N, 20.1803°E)
Time: 01:41:08
(UTC+00:00)

S-56A Canister/Altair - Pass Details

Date: 20 September 2024
Orbit: 636 x 2487 km, 38.9° (Epoch: 15 October)

Event Time Altitude Azimuth Distance (km) Brightness Sun altitude
Rises 20:49:19 0° 263° (W) 3,748 11.3 -34.5°
Reaches altitude 10° 20:52:31 10° 246° (WSW) 3,061 10.6 -34.7°
Enters shadow 20:53:40 13° 238° (WSW) 2,902 10.4 -34.8°
Maximum altitude 20:57:38 19° 204° (SSW) 2,832 - -35.1°
Drops below altitude 10° 21:04:06 10° 164° (SSE) 4,010 - -35.6°
Sets 21:09:12 0° 149° (SSE) 5,365 - -36.0°
